Regional Weather Roundup
Issued by NWS Cleveland, OH

Home | Current Version | Previous Version | Graphics & Text | Print | Product List | Glossary On
Versions: 1 2 3 4 5 6 7 8 9 10 11 12 13 14 15 16 17 18 19 20 21 22 23 24 25 26 27 28 29 30 31 32 33 34 35 36 37 38 39 40 41 42 43 44 45 46 47 48 49 50
461
ASUS41 KCLE 290410
RWRCLE
OHIO REGIONAL WEATHER ROUNDUP
NATIONAL WEATHER SERVICE CLEVELAND, OH
1200 AM EDT MON MAY 29 2017

NOTE: "FAIR" INDICATES FEW OR NO CLOUDS BELOW 12,000 FEET WITH NO
SIGNIFICANT WEATHER AND/OR OBSTRUCTIONS TO VISIBILITY.

OHZ001>008-015>018-024>027-034-035-043-044-290500-
   NORTHWEST OHIO

CITY           SKY/WX    TMP DP  RH WIND       PRES   REMARKS
DEFIANCE       CLOUDY    63  60  90 SW5       29.77R
FINDLAY        CLOUDY    63  57  81 SW9       29.76R
TOLEDO EXPRESS CLOUDY    63  63 100 W9        29.74R
TOLEDO EXEC    CLOUDY    65  64  97 SW8       29.74S
LIMA           CLOUDY    62  59  90 SW8       29.79S
$$

OHZ009>014-019>023-028>033-038-089-290500-
   NORTHEAST OHIO

CITY           SKY/WX    TMP DP  RH WIND       PRES   REMARKS
CLE-HOPKINS    CLOUDY    64  61  90 SW8       29.77R
CLE-LAKEFRONT  MOCLDY    63  59  87 S7        29.73R
CUY CO. ARPT   NOT AVBL
LORAIN-ELYRIA  LGT RAIN  62  56  80 SW10      29.75S
ASHTABULA      LGT RAIN  61  61 100 S9        29.75F
AKRON-CANTON   LGT RAIN  63  59  87 SW7       29.78F FOG
WOOSTER        LGT RAIN  61  59  93 SW9       29.80S
MANSFIELD      LGT RAIN  61  60  97 S14       29.78F
YOUNGSTOWN     LGT RAIN  62  60  93 VRB3      29.77F
$$

OHZ042-051>053-060>062-070>072-077>081-290500-
  SOUTHWEST OHIO

CITY           SKY/WX    TMP DP  RH WIND       PRES   REMARKS
CINC-COVINGTON LGT RAIN  64  63  96 SW6       29.86R
CINC-LUNKEN    LGT RAIN  66  65  96 S6        29.85R
HAMILTON       CLOUDY    64  64 100 W7        29.85R
DAYTON         CLOUDY    63  61  93 W8        29.82R
WRIGHT-PAT AFB MOCLDY    65  62  91 W5        29.81R
DAYTON GENERAL CLOUDY    65  60  84 SW9       29.81S
WILMINGTON     LGT RAIN  66  64  93 SW9       29.81F
$$

OHZ036-037-039>041-045>050-054>059-063>069-073>076-082>088-290500-
  CENTRAL AND SOUTHEAST OHIO

CITY           SKY/WX    TMP DP  RH WIND       PRES   REMARKS
COLUMBUS       CLOUDY    66  58  75 N13       29.80R
OSU AIRPORT    CLOUDY    64  59  83 CALM      29.81R
BOLTON FIELD   CLOUDY    67  62  84 W7        29.82R
RICKENBACK AFB CLOUDY    67  63  86 SW6       29.80R
NEWARK         CLOUDY    68  56  65 N10G17    29.80R
MARION         LGT RAIN  62  59  90 S9        29.78R
LANCASTER      CLOUDY    70  62  76 SW8       29.81R
ZANESVILLE     CLOUDY    71  60  68 W9        29.78F
NEW PHILLY     NOT AVBL
$$




USA.gov is the U.S. government's official web portal to all federal, state and local government web resources and services.